This is the latest recevied weather packets stored in our database for station/object WD9U. If no packets are shown the sender has not sent any weather packets the latest 10 day(s).
| Time | Temp. | Humidity | Pressure | Rain* | Wind** | Luminosity | Snow |
|---|---|---|---|---|---|---|---|
| 1778071751 | 2.22° C | 58% | 1015.1 hPa | 0 mm | - | 114 W/m² | - |
| 1778071513 | 2.22° C | 58% | 1015 hPa | 0 mm | - | 111 W/m² | - |
| 1778071391 | 2.22° C | 59% | 1015 hPa | 0 mm | - | 110 W/m² | - |
| 1778071031 | 2.22° C | 58% | 1015 hPa | 0 mm | - | 104 W/m² | - |
| 1778070671 | 2.22° C | 58% | 1014.9 hPa | 0 mm | - | 97 W/m² | - |
| 1778070311 | 2.22° C | 59% | 1014.9 hPa | 0 mm | - | 92 W/m² | - |
| 1778069951 | 2.22° C | 60% | 1014.8 hPa | 0 mm | - | 90 W/m² | - |
| 1778069591 | 2.22° C | 59% | 1014.7 hPa | 0 mm | - | 78 W/m² | - |
| 1778069231 | 2.22° C | 59% | 1014.6 hPa | 0 mm | - | 72 W/m² | - |
| 1778069113 | 2.22° C | 59% | 1014.6 hPa | 0 mm | - | 73 W/m² | - |
| 1778068871 | 1.67° C | 60% | 1014.5 hPa | 0 mm | - | 68 W/m² | - |
| 1778068509 | 1.67° C | 60% | 1014.4 hPa | 0 mm | - | 60 W/m² | - |
| 1778068149 | 1.67° C | 60% | 1014.4 hPa | 0 mm | - | 53 W/m² | - |
| 1778067911 | 1.67° C | 59% | 1014.2 hPa | 0 mm | - | 48 W/m² | - |
| 1778067789 | 1.67° C | 59% | 1014.3 hPa | 0 mm | - | 46 W/m² | - |
| 1778067429 | 1.67° C | 60% | 1014.2 hPa | 0 mm | - | 37 W/m² | - |
| 1778067069 | 1.67° C | 60% | 1014.2 hPa | 0 mm | - | 30 W/m² | - |
| 1778066709 | 1.67° C | 60% | 1014.1 hPa | 0 mm | - | 26 W/m² | - |
| 1778066349 | 1.67° C | 60% | 1014.2 hPa | 0 mm | - | 20 W/m² | - |
| 1778065988 | 1.67° C | 60% | 1013.9 hPa | 0 mm | - | 16 W/m² | - |
| 1778065628 | 1.67° C | 60% | 1014 hPa | 0 mm | - | 10 W/m² | - |
| 1778065511 | 2.22° C | 60% | 1014 hPa | 0 mm | - | 8 W/m² | - |
| 1778065268 | 2.22° C | 60% | 1013.9 hPa | 0 mm | - | 6 W/m² | - |
| 1778064908 | 2.22° C | 59% | 1013.9 hPa | 0 mm | - | 4 W/m² | - |
| 1778064548 | 2.22° C | 58% | 1013.9 hPa | 0 mm | - | 2 W/m² | - |
* Rain latest hour (hover to see other rain measurements)
** Current wind speed in m/s (hover to see current wind gust speed)